Terminal Aerodrome Forecast
Issued by NWS Tulsa, OK

Home | Current Version | Previous Version | Text Only | Print | Product List | Glossary On
Versions: 1 2 3 4 5 6 7 8 9 10 11 12
000
FTUS44 KTSA 271100
TAFFSM
TAF
KFSM 271135Z 2712/2812 08004KT P6SM SCT250
     FM271700 09008KT P6SM SCT050
     FM280300 08004KT P6SM SCT250=

USA.gov is the U.S. government's official web portal to all federal, state and local government web resources and services.